Regional Weather Roundup
Issued by NWS Newport/Morehead, NC

Current Version | Previous Version | Text Only | Print | Product List | Glossary On
Versions: 1 2 3 4 5 6 7 8 9 10 11 12 13 14 15 16 17 18 19 20 21 22 23 24 25 26 27 28 29 30 31 32 33 34 35 36 37 38 39 40 41 42 43 44 45 46 47 48 49 50
000
ASUS42 KMHX 161722
RWRMHX
WEATHER ROUNDUP FOR EASTERN NORTH CAROLINA
NATIONAL WEATHER SERVICE NEWPORT/MOREHEAD CITY NC
100 PM EDT WED APR 16 2014

NOTE: "FAIR" INDICATES FEW OR NO CLOUDS BELOW 12,000 FEET
WITH NO SIGNIFICANT WEATHER AND/OR OBSTRUCTIONS TO VISIBILITY

NCZ015>017-031-032-045>047-102-103-161800-
NORTH COAST

CITY           SKY/WX    TMP DP  RH WIND       PRES   REMARKS
EDENTON        SUNNY     48  28  45 N14G20    30.38S
ELIZABETH CITY SUNNY     48  30  49 N15G26    30.39R
KITTY HAWK     SUNNY     44  29  56 N14G23    30.36R
MANTEO         SUNNY     45  30  55 N24G32    30.37R

$$

NCZ045>047-081-094-103-104-161800-
CENTRAL COAST

CITY           SKY/WX    TMP DP  RH WIND       PRES   REMARKS
FRISCO         PTSUNNY   45  32  60 NE15G30   30.35R
SWANQUARTER      N/A     48 N/A N/A NE16G23   30.33S

$$

NCZ095-097-098-100-101-161800-
SOUTHERN COAST

CITY           SKY/WX    TMP DP  RH WIND       PRES   REMARKS
BEAUFORT       MOSUNNY   50  32  50 N17G31    30.33S
CEDAR ISLAND     N/A     48 N/A N/A VRB16G31  30.39S
JACKSONVILLE   SUNNY     50  27  40 NE16      30.35S
NEWPORT          N/A    N/A N/A N/A N9G15       N/A
PINEY ISLAND   MOSUNNY   50  33  52 NE18G26   30.34S
WILMINGTON     SUNNY     53  28  38 N14       30.33F


$$

NCZ011>013-027>030-043-044-078>080-089-090>093-098-161800-
COASTAL PLAIN

CITY           SKY/WX    TMP DP  RH WIND       PRES   REMARKS
AHOSKIE        SUNNY     46  23  39 N15       30.40F
CLINTON        SUNNY     50  28  43 NE10G17   30.37F
ELIZABETHTOWN  SUNNY     49  26  41 NE7       30.35F
GOLDSBORO      SUNNY     48  25  40 N13G20    30.36F
GREENVILLE     SUNNY     48  27  43 N7G23     30.38F
HAVELOCK       MOSUNNY   50  29  44 N18G25    30.35F
KENANSVILLE    SUNNY     47  25  41 N9G17     30.37F
KINSTON        NOT AVBL
NEW BERN       SUNNY     51  29  42 NE10G22   30.36F
RICHLANDS      SUNNY     50  27  40 N17G24    30.36S
ROANOKE RAPIDS NOT AVBL
ROCKY MOUNT      N/A    N/A N/A N/A MISG      30.39F
WASHINGTON     SUNNY     50  25  37 NE12G17   30.37S
WHITEVILLE     SUNNY     50  28  41 NE13G20   30.34S

$$

AMZ130-135-150-152-154-156-158-170-250-252-270-ANZ085-086-088-633-658-670-161800-
MARINE OBSERVATIONS

STATION/POSITION TIME  TEMP    WIND        PRES    WAVE   SWELL
                       AIR SEA DIR/SP/G            HT/PER HT/PER
                 (UTC) (F)     (DEG/KT/KT) (MB)    (FT/S) (FT/S)
CHESAPEAKE LIGHT 1700   40      10/ 21/ 23 1029.3
BUOY 44014       1700   42 62   10/ 27/ 31 1027.4   13/ 9
DUCK             1700   41 48   10/ 21/ 27 1027.5
2E DUCK          1700      47                N/A     8/ 6   2/11
OREGON INLET     1700   43 54  360/ 20/ 27 1028.0
BUOY 44095       1700      61                N/A    10/ 9   2/11
HATTERAS CG      1700   44 59   10/ 15/ 26 1027.5
DIAMOND BUOY     NOT AVBL
CAPE LOOKOUT     1700   48      10/ 22/ 26 1026.9
BEAUFORT LAB     1700   46 62   10/ 19/ 23 1026.7
30 SE NEW RIVER  1700   46 64   20/ 21/ 27 1027.1    7/ 7   3/ 8
5 SE WRIGHTSVILL 1700   47 60   30/ 16/ 17 1026.9
FRYING PAN BUOY  1700   47 65   40/ 23/ 31 1025.7    8/ 7
BUOY 41001       NOT AVBL
BUOY 41002       NOT AVBL
BUOY 41004       NOT AVBL

$$



USA.gov is the U.S. government's official web portal to all federal, state and local government web resources and services.